METAR AND TAF INFORMATION
METAR FOR KIND
KIND 230354Z 00000KT 10SM SCT050 SCT120 23/18 A3002 RMK AO2 SLP160 T02330178
KIND 230254Z 00000KT 10SM SCT050 24/18 A3002 RMK AO2 SLP157 T02440178 53014
KIND 230154Z 12004KT 10SM FEW050 FEW250 25/17 A3000 RMK AO2 SLP152 T02500172
KIND 230200Z 2302/2406 VRB04KT P6SM FEW050 SCT250
FM230300 26003KT P6SM FEW250
FM230800 25002KT 6SM BR MIFG FEW250
TEMPO 2308/2312 00000KT 4SM BR BCFG
FM231300 24006KT P6SM SCT035 BKN250

 AIRPORT MAP

 RUNWAY INFORMATION
Runway 05L Runway length 11200 ft Runway width 150 ft
Runway elevation 738 ft Runway displaced threshold 0 ft Runway heading 45
Runway 23R Runway length 11200 ft Runway width 150 ft
Runway elevation 783 ft Runway displaced threshold 0 ft Runway heading 225
Runway 05R Runway length 10000 ft Runway width 150 ft
Runway elevation 789 ft Runway displaced threshold 0 ft Runway heading 45
Runway 23L Runway length 10000 ft Runway width 150 ft
Runway elevation 788 ft Runway displaced threshold 0 ft Runway heading 225
Runway 14 Runway length 7605 ft Runway width 150 ft
Runway elevation 788 ft Runway displaced threshold 0 ft Runway heading 135
Runway 32 Runway length 7605 ft Runway width 150 ft
Runway elevation 781 ft Runway displaced threshold 0 ft Runway heading 315

 AIRPORT FREQUENCIES
Type APP Name APP Frequency 119.3 MHZ
Type ATIS Name ATIS Frequency 134.25 MHZ
Type CLD Name CLNC DEL Frequency 128.75 MHZ
Type DEP Name DEP Frequency 119.05 MHZ
Type GND Name GND Frequency 121.8 MHZ
Type RDO Name TERRE HAUT Frequency 122.55 MHZ
Type TWR Name INDY TWR Frequency 120.9 MHZ
Type UNIC Name UNICOM Frequency 122.95 MHZ

 AIRPORT NEAR NAVIGATION AIDS
Type NDB Name Colfa Frequency 232 KHZ

-